Date String (YYYY-MM-DD hh:mm:ss) UTC,Instrument flags,absolute air pressure of the measurement (hPa),sample flow rate (lpm),inlet stack bypass flow (lpm),air temperature of the measurement (°C),ambient temperature measured by the external sensor (°C),aerosol sample conditioner tube jacket temperature (°C),OPC LED temperature (°C),internal box temperature (°C),relative humidity of the measurement (%),span deviation,mass concentration of particles derived from Lorenz-Mie calculation of OPC scattering (μg/m³),mass concentration of particles derived from Lorenz-Mie calculation of OPC scattering (μg/m³),mass concentration of particles derived from Lorenz-Mie calculation of OPC scattering (μg/m³)
DateTimeUTC,F1_M11,P_M11,Q1_M11,Q2_M11,T1_M11,T2_M11,T3_M11,T4_M11,T5_M11,U1_M11,ZSPAN_M11,X0_M11,X2_M11,X1_M11
2023-09-03 06:00:00,SystemResetWarning,0833.9,5.00,000.00,028.0,027.2,000.0,036.3,029.8,29.7,0000.0,0006.38,0002.10,0001.54
2023-09-03 06:01:00,SystemResetWarning,0833.8,4.99,000.00,028.1,026.7,000.0,036.3,029.7,29.6,0000.0,0006.39,0002.15,0001.56
2023-09-03 06:02:00,SystemResetWarning,0833.8,4.99,000.00,028.0,025.2,000.0,036.2,029.3,29.7,0000.0,0006.45,0002.19,0001.58
2023-09-03 06:03:00,SystemResetWarning,0833.8,5.02,000.00,027.9,024.7,000.0,036.1,029.2,29.8,0000.0,0006.48,0002.23,0001.59
2023-09-03 06:04:00,SystemResetWarning,0833.8,4.99,000.00,027.8,024.9,000.0,036.1,029.1,29.8,0000.0,0005.86,0002.33,0001.61
2023-09-03 06:05:00,SystemResetWarning,0833.8,5.00,000.00,027.8,025.2,000.0,036.2,029.2,29.9,0000.0,0005.85,0002.31,0001.61
2023-09-03 06:06:00,SystemResetWarning,0833.7,5.00,000.00,027.8,025.5,000.0,036.2,029.3,30.0,0000.0,0005.84,0002.29,0001.61
2023-09-03 06:07:00,SystemResetWarning,0833.8,5.00,000.00,027.8,025.8,000.0,036.2,029.4,29.9,0000.0,0006.27,0002.28,0001.63
2023-09-03 06:08:00,SystemResetWarning,0833.8,4.99,000.00,027.8,026.1,000.0,036.2,029.5,29.8,0000.0,0006.79,0002.31,0001.64
2023-09-03 06:09:00,SystemResetWarning,0833.8,4.99,000.00,027.9,026.4,000.0,036.2,029.6,29.7,0000.0,0006.14,0002.29,0001.65
2023-09-03 06:10:00,SystemResetWarning,0833.8,5.00,000.00,027.9,026.6,000.0,036.3,029.6,29.6,0000.0,0004.80,0002.24,0001.64
2023-09-03 06:11:00,SystemResetWarning,0833.8,5.01,000.00,028.0,026.8,000.0,036.3,029.7,29.5,0000.0,0004.66,0002.22,0001.65
2023-09-03 06:12:00,SystemResetWarning,0833.8,5.00,000.00,028.0,026.9,000.0,036.3,029.8,29.4,0000.0,0004.58,0002.21,0001.65
2023-09-03 06:13:00,SystemResetWarning,0833.8,5.01,000.00,028.1,027.1,000.0,036.3,029.8,29.2,0000.0,0004.61,0002.23,0001.66
2023-09-03 06:14:00,SystemResetWarning,0833.8,5.00,000.00,028.1,027.0,000.0,036.4,029.8,29.1,0000.0,0004.72,0002.23,0001.66
2023-09-03 06:15:00,SystemResetWarning,0833.7,4.98,000.00,028.1,025.6,000.0,036.3,029.3,29.1,0000.0,0004.62,0002.20,0001.66
2023-09-03 06:16:00,SystemResetWarning,0833.8,5.01,000.00,027.9,024.1,000.0,036.2,028.9,29.3,0000.0,0005.19,0002.22,0001.66
2023-09-03 06:17:00,SystemResetWarning,0833.8,5.01,000.00,027.8,023.8,000.0,036.1,028.8,29.5,0000.0,0006.20,0002.26,0001.66
2023-09-03 06:18:00,SystemResetWarning,0833.8,5.01,000.00,027.7,024.1,000.0,036.1,028.8,29.7,0000.0,0006.02,0002.28,0001.67
2023-09-03 06:19:00,SystemResetWarning,0833.8,5.00,000.00,027.6,024.5,000.0,036.1,028.9,29.7,0000.0,0005.37,0002.25,0001.67
2023-09-03 06:20:00,SystemResetWarning,0833.8,5.00,000.00,027.6,024.9,000.0,036.1,029.1,29.7,0000.0,0005.60,0002.23,0001.66
2023-09-03 06:21:00,SystemResetWarning,0833.8,5.00,000.00,027.7,025.4,000.0,036.1,029.2,29.7,0000.0,0006.14,0002.30,0001.67
2023-09-03 06:22:00,SystemResetWarning,0833.9,5.00,000.00,027.7,025.7,000.0,036.1,029.3,29.5,0000.0,0006.52,0002.32,0001.68
2023-09-03 06:23:00,SystemResetWarning,0833.8,5.00,000.00,027.7,026.0,000.0,036.1,029.4,29.4,0000.0,0007.31,0002.35,0001.68
2023-09-03 06:24:00,SystemResetWarning,0833.9,5.00,000.00,027.8,026.3,000.0,036.2,029.4,29.3,0000.0,0008.50,0002.34,0001.68
2023-09-03 06:25:00,SystemResetWarning,0833.9,5.00,000.00,027.8,026.5,000.0,036.2,029.5,29.2,0000.0,0008.72,0002.30,0001.68
2023-09-03 06:26:00,SystemResetWarning,0833.9,4.99,000.00,027.9,026.7,000.0,036.2,029.6,29.1,0000.0,0009.00,0002.28,0001.69
2023-09-03 06:27:00,SystemResetWarning,0833.9,5.00,000.00,027.9,026.8,000.0,036.2,029.6,29.0,0000.0,0008.79,0002.27,0001.70
2023-09-03 06:28:00,SystemResetWarning,0833.8,5.00,000.00,028.0,027.0,000.0,036.2,029.7,28.9,0000.0,0008.33,0002.28,0001.71
2023-09-03 06:29:00,SystemResetWarning,0833.9,5.00,000.00,028.0,027.1,000.0,036.3,029.8,28.8,0000.0,0008.02,0002.28,0001.70
2023-09-03 06:30:00,SystemResetWarning,0833.9,5.00,000.00,028.1,027.2,000.0,036.3,029.8,28.7,0000.0,0008.02,0002.28,0001.69
2023-09-03 06:31:00,SystemResetWarning,0833.9,5.00,000.00,028.1,027.1,000.0,036.3,029.8,28.6,0000.0,0007.88,0002.26,0001.69
2023-09-03 06:32:00,SystemResetWarning,0833.9,5.00,000.00,028.1,025.8,000.0,036.3,029.4,28.7,0000.0,0007.62,0002.20,0001.68
2023-09-03 06:33:00,SystemResetWarning,0833.9,5.00,000.00,028.0,024.8,000.0,036.2,029.2,28.8,0000.0,0007.38,0002.14,0001.67
2023-09-03 06:34:00,SystemResetWarning,0833.9,5.00,000.00,027.9,024.8,000.0,036.2,029.1,29.0,0000.0,0006.86,0002.11,0001.66
2023-09-03 06:35:00,SystemResetWarning,0833.9,5.02,000.00,027.8,025.1,000.0,036.2,029.1,29.1,0000.0,0004.45,0002.07,0001.66
2023-09-03 06:36:00,SystemResetWarning,0833.9,5.00,000.00,027.8,025.4,000.0,036.2,029.3,29.0,0000.0,0004.26,0002.07,0001.66
2023-09-03 06:37:00,SystemResetWarning,0833.9,5.00,000.00,027.8,025.8,000.0,036.2,029.4,29.0,0000.0,0003.44,0002.06,0001.65
2023-09-03 06:38:00,SystemResetWarning,0833.9,4.99,000.00,027.9,026.1,000.0,036.3,029.5,28.9,0000.0,0003.59,0002.08,0001.64
2023-09-03 06:39:00,SystemResetWarning,0834.0,5.00,000.00,027.9,026.3,000.0,036.3,029.6,28.8,0000.0,0003.62,0002.09,0001.64
2023-09-03 06:40:00,SystemResetWarning,0833.9,5.00,000.00,027.9,026.6,000.0,036.3,029.6,28.8,0000.0,0003.57,0002.05,0001.63
2023-09-03 06:41:00,SystemResetWarning,0833.9,4.99,000.00,028.0,026.8,000.0,036.3,029.7,28.6,0000.0,0003.56,0002.05,0001.62
2023-09-03 06:42:00,SystemResetWarning,0834.0,4.99,000.00,028.1,026.9,000.0,036.3,029.8,28.5,0000.0,0003.83,0002.14,0001.64
2023-09-03 06:43:00,SystemResetWarning,0833.9,4.99,000.00,028.1,027.1,000.0,036.4,029.8,28.4,0000.0,0003.96,0002.20,0001.65
2023-09-03 06:44:00,SystemResetWarning,0833.9,5.00,000.00,028.1,027.2,000.0,036.4,029.9,28.3,0000.0,0003.93,0002.22,0001.66
2023-09-03 06:45:00,SystemResetWarning,0834.0,5.00,000.00,028.2,026.3,000.0,036.4,029.7,28.2,0000.0,0004.11,0002.27,0001.66
2023-09-03 06:46:00,SystemResetWarning,0833.9,5.01,000.00,028.0,025.0,000.0,036.3,029.3,28.3,0000.0,0004.15,0002.28,0001.66
2023-09-03 06:47:00,SystemResetWarning,0833.9,5.01,000.00,027.9,024.8,000.0,036.3,029.2,28.5,0000.0,0005.08,0002.30,0001.66
2023-09-03 06:48:00,SystemResetWarning,0833.8,5.01,000.00,027.9,025.0,000.0,036.3,029.2,28.6,0000.0,0005.88,0002.29,0001.65
2023-09-03 06:49:00,SystemResetWarning,0833.9,5.00,000.00,027.9,025.3,000.0,036.3,029.3,28.7,0000.0,0006.53,0002.26,0001.65
2023-09-03 06:50:00,SystemResetWarning,0833.9,5.00,000.00,027.9,025.7,000.0,036.3,029.4,28.7,0000.0,0006.46,0002.24,0001.65
2023-09-03 06:51:00,SystemResetWarning,0833.9,5.00,000.00,027.9,026.0,000.0,036.3,029.5,28.6,0000.0,0006.80,0002.26,0001.65
2023-09-03 06:52:00,SystemResetWarning,0834.0,5.00,000.00,027.9,026.3,000.0,036.3,029.6,28.5,0000.0,0007.12,0002.27,0001.66
2023-09-03 06:53:00,SystemResetWarning,0833.9,5.00,000.00,028.0,026.5,000.0,036.3,029.6,28.5,0000.0,0006.86,0002.18,0001.65
2023-09-03 06:54:00,SystemResetWarning,0834.0,5.00,000.00,028.0,026.7,000.0,036.4,029.7,28.4,0000.0,0006.59,0002.10,0001.63
2023-09-03 06:55:00,SystemResetWarning,0833.9,5.00,000.00,028.1,026.9,000.0,036.4,029.8,28.3,0000.0,0006.60,0002.07,0001.63
2023-09-03 06:56:00,SystemResetWarning,0833.9,5.00,000.00,028.1,027.1,000.0,036.4,029.8,28.2,0000.0,0006.60,0002.08,0001.62
2023-09-03 06:57:00,SystemResetWarning,0833.9,5.01,000.00,028.2,027.2,000.0,036.4,029.9,28.2,0000.0,0007.40,0002.05,0001.61
2023-09-03 06:58:00,SystemResetWarning,0833.9,5.00,000.00,028.2,026.8,000.0,036.4,029.8,28.1,0000.0,0006.94,0002.05,0001.62
2023-09-03 06:59:00,SystemResetWarning,0833.9,4.99,000.00,028.1,025.3,000.0,036.4,029.4,28.2,0000.0,0006.09,0002.06,0001.64
